www.pogodaiklimat.ru

Погода и климат >> Архив погоды >> Россия >> Нижегородская область >> Арзамас


ПОГОДА в Арзамасе

АРХИВ ПОГОДЫ в Арзамасе

Время (UTC), дата Ветер
(напр.,м/с)
 
Видим.   Явления Облачность Т
(С)
Тd
(С)
f
(%)
Тe
(С)
Тes
(С)
Комфортность P
(гПа)
Po
(гПа)
Тmin
(С)
Tmax
(С)
R
(мм)
R24
(мм)
S
(см)
00 12.08 ЮЗ 1-1
{2}
4000 м 10/0
[As op]
+15.3 +14.8 97 +16 +16 тепло 1014.2 999.6
03 12.08 СЗ 1-1
{3}
20 км 10/0
[As op]
+16.0 +15.3 96 +17 +17 тепло 1015.0 1000.4 +14.1
06 12.08 СЗ 2-4
{4}
20 км 5/3 300 м
[Cu hum Ci fib]
+20.5 +15.5 73 +24 +29 комфорт 1015.9 1001.5
09 12.08 СЗ 4-7
{7}
20 км 8/6 300 м
[Sc diur, vesp Ci fib]
+23.0 +12.5 52 +26 +29 жарко 1015.7 1001.4
12 12.08 СЗ 4-7
{8}
20 км 5/5 300 м
[Cu hum]
+24.0 +11.7 46 +26 +28 жарко 1016.0 1001.8
15 12.08 С 2-4
{8}
20 км ясно +23.5 +11.9 48 +25 +26 комфорт 1015.9 1001.7 +24.2
18 12.08 СВ 1-1
{5}
4000 м 5/0
[Ci]
+16.9 +12.2 74 +18 +18 тепло 1017.0 1002.4
21 12.08 В 1-2
{2}
4000 м местами туман поземный ясно +12.5 +12.0 97 +12 +12 прохладно 1018.3 1003.4
00 13.08 штиль 0
{1}
500 м туман ?/? +8.2 +7.8 97 +7 +7 холодно 1018.2 1003.1
03 13.08 СВ 1-1
{2}
20 км дымка {туман} ясно +10.5 +10.3 99 +10 +11 прохладно 1019.3 1004.3 +7.8
06 13.08 СВ 1-2
{2}
20 км {туман} ясно +21.9 +13.6 59 +25 +33 комфорт 1019.0 1004.6
09 13.08 Ю 2-3
{4}
20 км 4/4 600 м
[Cu hum]
+24.2 +12.8 49 +26 +34 жарко 1018.5 1004.2
12 13.08 В 2-3
{6}
20 км 3/3 600 м
[Sc diur, vesp]
+25.3 +12.7 46 +27 +33 жарко 1018.1 1003.9
15 13.08 В 1-2
{4}
20 км ясно +24.9 +12.8 47 +27 +28 жарко 1017.6 1003.3 +26.0
18 13.08 В 1-2
{3}
4000 м ясно +17.3 +14.7 85 +18 +18 тепло 1018.1 1003.5
21 13.08 В 1-1
{2}
4000 м ясно +14.3 +13.4 94 +15 +15 по сезону 1018.6 1003.8
00 14.08 штиль 0
{2}
4000 м ясно +10.2 +9.5 95 +9 +9 прохладно 1019.2 1004.2
03 14.08 штиль 0
{2}
20 км ясно +13.0 +12.6 97 +12 +13 прохладно 1019.4 1004.5 +10.0
06 14.08 Ю 2-4
{5}
20 км ясно +21.6 +15.2 67 +25 +32 комфорт 1019.0 1004.6
09 14.08 -5
{6}
20 км н/о +25.8 +12.5 44 +28 +33 жарко 1018.3 1004.1
12 14.08 Ю 1-4
{6}
20 км 8/8 300 м
[Cu med, cong]
+27.4 +12.3 39 +29 +31 жарко 1017.9 1003.8
15 14.08 В 2-4
{5}
20 км 4/4 300 м
[Sc diur, vesp]
+25.9 +14.4 49 +28 +29 жарко 1017.4 1003.2 +27.4
18 14.08 ЮВ 1-2
{4}
4000 м 3/0
[Ac trans]
+20.5 +14.3 68 +24 +24 комфорт 1018.5 1004.0
21 14.08 ЮВ 2-4
{4}
4000 м ясно +18.6 +14.3 76 +20 +20 тепло 1018.9 1004.3
00 15.08 ЮВ 2-3
{4}
4000 м 10/0
[Ac und]
+18.0 +13.4 74 +19 +19 тепло 1018.9 1004.3
03 15.08 ЮВ 1-2
{8}
20 км 10/0
[Ac und]
+17.9 +14.4 80 +19 +19 тепло 1019.4 1004.8 +17.9
06 15.08 С 2-3
{9}
20 км дождь {ливн. осадки} 10/0
[As op]
+17.0 +16.4 96 +17 +19 по сезону 1021.2 1006.6
09 15.08 СЗ 3-4
{4}
20 км {ливн. осадки, дождь} 10/0
[Ac und]
+18.8 +18.0 95 +20 +23 тепло 1021.8 1007.3
12 15.08 С 2-3
{5}
20 км {ливн. осадки, дождь} 8/3 300 м
[Sc Ac lent Ci sp]
+21.3 +17.3 78 +25 +29 комфорт 1022.2 1007.7
15 15.08 С 2-4
{6}
20 км 5/1 300 м
[Sc Ac As Cc]
+21.3 +17.0 76 +25 +26 комфорт 1023.0 1008.5 +22.4 16
18 15.08 штиль 0
{5}
4000 м туман поземный 3/0
[Cs]
+15.0 +14.1 94 +15 +15 по сезону 1024.8 1009.9
21 15.08 штиль 0
{1}
4000 м туман поземный ясно +13.5 +13.1 97 +13 +13 по сезону 1025.4 1010.5
00 16.08 В 1 4000 м дымка {туман} ясно +13.2 +13.0 99 +13 +13 по сезону 1026.3 1011.3
03 16.08 СВ 1-2
{2}
20 км 3/0
[Ac lent]
+13.6 +13.4 99 +14 +14 по сезону 1027.4 1012.5 +12.2
06 16.08 В 2-3
{4}
20 км в посл. час морось 10/10 300 м
[St]
+15.8 +15.5 98 +16 +16 по сезону 1028.6 1013.8
09 16.08 -6
{8}
20 км н/о +22.4 +14.6 61 +26 +30 жарко 1028.3 1013.8
12 16.08 СВ 3-4
{10}
20 км 4/4 600 м
[Cu med, cong]
+22.7 +11.9 50 +25 +29 комфорт 1028.1 1013.6
15 16.08 В 2-3
{6}
20 км ясно +21.7 +12.5 56 +24 +25 комфорт 1027.7 1013.2 +24.0
18 16.08 СВ 2-2
{3}
4000 м ясно +15.2 +12.1 82 +15 +15 по сезону 1028.6 1013.7
21 16.08 В 2-3
{3}
4000 м ясно +12.0 +10.9 93 +11 +11 прохладно 1029.2 1014.2
00 17.08 СВ 1-2
{3}
4000 м ясно +8.6 +8.0 96 +8 +8 прохладно 1029.7 1014.4
03 17.08 В 1-2
{2}
20 км ясно +10.4 +9.8 96 +10 +11 прохладно 1030.1 1014.9 +7.2
06 17.08 В 2-3
{4}
20 км ясно +19.7 +11.3 58 +22 +29 комфорт 1029.5 1014.9
09 17.08 В 3-6
{9}
20 км ясно +22.4 +9.2 43 +24 +34 комфорт 1029.1 1014.6
12 17.08 В 2-3
{7}
20 км ясно +23.6 +8.9 39 +24 +32 комфорт 1028.3 1013.8
15 17.08 СВ 1-3
{6}
20 км ясно +22.8 +8.8 41 +24 +25 комфорт 1027.2 1012.7 +23.6
18 17.08 СВ 2-4
{4}
4000 м ясно +15.6 +12.5 82 +15 +15 по сезону 1027.9 1013.1
21 17.08 В 1-3
{4}
4000 м ясно +13.9 +10.5 80 +14 +14 по сезону 1028.1 1013.2
00 18.08 В 1-2
{3}
4000 м ясно +9.5 +8.5 93 +9 +9 прохладно 1028.4 1013.1
03 18.08 В 1-2
{3}
20 км 8/0
[Ac und]
+11.2 +10.6 96 +11 +11 прохладно 1028.6 1013.4 +9.5
06 18.08 В 1-3
{3}
20 км 8/0
[Ac trans]
+20.2 +12.0 59 +23 +27 комфорт 1027.9 1013.3
09 18.08 Ю 2-4
{6}
20 км 8/8 300 м
[Sc diur, vesp]
+24.5 +12.1 46 +26 +29 жарко 1027.4 1013.0
12 18.08 СВ 1-3
{5}
20 км 4/4 300 м
[Sc diur, vesp]
+24.4 +11.3 44 +26 +31 жарко 1026.5 1012.1
15 18.08 В 2-3
{5}
20 км ясно +23.7 +11.4 46 +25 +26 комфорт 1025.3 1010.9 +25.4
18 18.08 В 1-2
{3}
4000 м 3/0
[Ac cuf Cs]
+15.3 +12.6 84 +16 +16 по сезону 1025.9 1011.0
21 18.08 штиль 0
{2}
4000 м туман поземный 4/0
[Ac As]
+10.9 +10.3 96 +10 +10 прохладно 1026.1 1011.0

 

Местоположение метеостанции Арзамас (Нижегородская область, Россия): широта 55.37 долгота 43.78 высота над уровнем моря 124 м.

В архиве по умолчанию представлена погода в Арзамасе за последнюю неделю. Архивные данные за месяц целиком и за предыдущие месяцы, начиная с января 2011 года, Вы можете получить, выбрав интересующий диапазон дат из раскрывающегося списка и нажав кнопку "Ввод!".

Внимание! Время в таблицах - всемирное. Для получения местного времени необходимо прибавить поправку, которая в Арзамасе равна 3 ч.

Смотрите также архив погоды в соседних городах и на ближайших метеорологических станциях:

Погода в Дальнем Константиново (Нижегородская область, Россия) (51 км)
Погода в Лукоянове (Нижегородская область, Россия) (59 км)
Погода в Павлово (Нижегородская область, Россия) (80 км)
Погода в Темникове (Мордовия, Россия) (89 км)
Погода в Нижнем Новгороде аэропорт (Нижегородская область, Россия) (95 км)
Погода в Нижнем Новгороде (Нижегородская область, Россия) (101 км)
Погода в Краснослободске (Мордовия, Россия) (105 км)
Погода в Выксе (Нижегородская область, Россия) (105 км)
Погода в Большом Болдино (Нижегородская область, Россия) (105 км)
Погода в Лысково (Нижегородская область, Россия) (106 км)

Пояснения к столбцам:

Ветер - указаны скорость ветра в м/с - средняя за 10 мин, порывы в срок и между сроками (в фигурных скобках) и направление, откуда дует ветер: С - северный, СВ - северо-восточный, В - восточный, ЮВ - юго-восточный, Ю - южный, ЮЗ - юго-западный, З - западный, СЗ - северо-западный.
Видимость - горизонтальная дальность видимости в метрах или километрах. При видимости от 1 до 10 км при отсутствии осадков обычно наблюдается дымка, при ухудшении видимости до 1 км и менее - туман. В сухую погоду видимость может ухудшаться дымом, пылью или мглою.
Явления - указаны атмосферные явления, наблюдавшиеся в срок или в последний час перед сроком; фигурными скобками обозначены явления, наблюдавшиеся между сроками (за 1-3 часа до срока); квадратными скобками обозначены град или гололедные отложения с указанием их диаметра в мм.
Облачность - указаны через наклонную черту общая и нижняя облачность в баллах и высота нижней границы облаков в метрах; квадратными скобками обозначены формы облаков: Ci - перистые, Cs - перисто-слоистые, Cc - перисто-кучевые, Ac - высококучевые, As - высокослоистые, Sc - слоисто-кучевые, Ns - слоисто-дождевые, Cu - кучевые, Cb - кучево-дождевые. Подробнее классификацию облаков см. в Атласе облаков (PDF).
T - Температура воздуха - температура, измеренная на высоте 2 м над землей.
Td - Температура точки росы - температура, при понижении до которой содержащийся в воздухе водяной пар достигнет насыщения.
f - Относительная влажность воздуха - влажноcть воздуха, измеренная на высоте 2 м над землей.
Te - Эффективная температура - температура, которую ощущает одетый по сезону человек в тени. Характеристика душности погоды. При расчете учитывается влияние влажности воздуха и скорости ветра на теплоощущения человека.
Tes - Эффективная температура на солнце - температура, которую ощущает человек, с поправкой на солнечный нагрев. Характеристика знойности погоды. Зависит от высоты солнца над горизонтом, облачности и скорости ветра. Ночью, в пасмурную погоду, а также при ветре 12 м/с и более поправка равна нулю.
P - Атмосферное давление - приведенное к уровню моря атмосферное давление.
Po - Атмосферное давление - измеренное на уровне метеостанции атмосферное давление.
Tmin - Минимальная температура - минимум температуры воздуха на высоте 2 м над землей.
Tmax - Максимальная температура - максимум температуры воздуха на высоте 2 м над землей.
R - Количество осадков - Количество выпавших осадков за период времени, мм. При наведении курсора мыши на число - период времени, за который выпало указанное количество осадков.
R24 - Количество осадков - Количество выпавших осадков за 24 часа, мм.
S - Снежный покров - Высота снежного покрова, см. При наведении курсора мыши на число - состояние снежного покрова и степень покрытия местности в баллах.